CAPE
18 34 38 35 29 20 16 23 24 18 11 9 6 0 0 1 2 2 1 1 0 0 0 0 0 0 0 0 0 0 0 0 0 0 0 0 0 0 0 0 0 0 0 0 0 0 0
8 6 3 3 3 4 3 3 1 1 1 2 5 4 2 4 3 3 2 3 0 0 0 0 0 0 0 0 0 0 0 0 0 0 0 0 0 0 0 0 0 0 0 0 0 0 0
2 3 3 2 1 1 3 3 4 4 6 8 8 10 8 4 2 4 4 0 0 0 0 0 0 0 0 0 0 0 0 0 0 0 0 0 0 0 0 0 0 0 0 0 0 0 0
0 0 0 0 0 0 0 0 2 2 4 8 10 13 8 6 4 4 3 0 0 0 0 0 0 0 0 0 0 0 0 0 0 0 0 0 0 0 0 0 0 0 0 0 0 0 0
1 1 0 0 0 0 0 0 0 1 3 2 3 1 1 4 4 4 3 0 0 0 0 0 0 0 0 0 0 0 0 0 0 0 0 0 0 0 0 0 0 0 0 0 0 0 0
3 2 2 3 2 2 3 3 3 2 3 1 1 0 0 1 1 0 0 0 0 0 0 0 0 0 0 0 0 0 0 0 0 0 0 0 0 0 0 0 0 0 0 0 0 0 0
3 3 6 6 6 7 7 5 5 4 2 1 0 0 0 0 0 0 0 0 0 0 0 0 0 0 0 0 0 0 0 0 0 0 0 0 0 0 0 0 0 0 0 0 0 0 0
6 7 6 4 5 8 8 6 5 4 2 1 0 0 0 0 0 0 0 0 0 0 0 0 0 0 0 0 0 0 0 0 0 0 0 0 0 0 0 0 0 0 0 0 0 0 0
13 9 7 5 5 6 11 24 23 6 4 1 0 0 0 0 0 0 0 0 0 0 0 0 0 0 0 0 0 0 0 0 0 0 0 0 0 0 0 0 0 0 0 0 0 0 0
16 22 31 31 27 20 9 5 11 6 3 2 0 1 1 2 0 0 0 0 0 0 0 0 0 0 0 0 0 0 0 0 0 0 0 0 0 0 0 0 0 0 0 0 0 0 0
4 22 22 27 39 38 39 30 17 3 3 0 0 0 1 0 7 0 0 0 0 0 0 0 0 0 0 0 0 0 0 0 0 0 0 0 0 0 0 0 0 0 0 0 0 0 0
14 11 25 26 24 27 32 40 47 34 28 0 0 0 11 0 0 0 0 0 0 0 0 0 0 0 0 0 0 0 0 0 0 0 0 0 0 0 0 0 0 0 0 0 0 0 0
19 17 19 18 29 28 33 36 40 43 44 22 0 1 0 1 0 0 0 0 0 0 0 0 0 0 0 0 0 0 0 0 0 0 0 0 0 0 0 0 0 0 0 0 0 0 0
7 10 14 11 11 19 34 30 30 35 36 48 0 0 0 0 0 0 0 0 0 0 0 0 0 0 0 0 0 0 0 0 0 0 0 0 0 0 0 0 0 0 0 0 0 0 0
3 5 4 11 14 12 37 32 26 32 54 48 0 0 0 0 0 0 0 0 0 0 0 0 0 0 0 0 0 0 0 0 0 0 0 0 0 0 0 0 0 0 0 0 0 0 0
16 16 13 14 18 15 36 31 27 28 51 59 2 0 0 0 0 0 3 0 0 0 0 0 0 0 0 0 0 0 0 0 0 0 0 0 0 0 0 0 0 0 0 0 0 0 0
30 22 20 26 25 25 19 32 28 30 40 28 0 0 0 0 0 0 2 0 0 0 0 0 0 0 0 0 0 0 0 0 0 0 0 0 0 0 0 0 0 0 0 0 0 0 0
31 38 38 37 51 35 17 12 32 39 41 0 0 0 0 0 0 0 0 0 0 0 0 0 1 0 0 0 0 0 0 0 0 0 0 0 0 0 0 0 0 0 0 0 0 0 0
34 30 47 58 80 60 41 27 29 33 48 2 0 0 0 0 0 0 0 0 0 0 0 0 14 13 6 17 16 0 1 0 0 0 0 0 0 0 0 0 0 0 0 0 1 0 0
39 48 48 66 71 85 64 53 55 33 46 21 10 2 0 0 1 6 0 0 0 0 1 0 2 13 19 0 9 5 0 1 0 0 22 1 0 1 0 0 0 0 0 0 0 2 0
52 54 52 58 69 84 70 64 50 48 41 21 36 7 0 0 3 2 6 1 0 0 0 0 11 12 2 21 1 0 0 0 0 0 0 4 0 0 0 0 0 0 0 0 0 0 4
54 50 56 57 67 64 66 64 78 58 54 30 28 46 0 0 0 2 1 8 6 0 6 0 7 9 12 21 4 11 11 16 0 0 0 0 2 0 0 0 0 0 0 0 0 0 0
74 76 47 53 77 82 101 102 100 93 64 11 0 12 76 38 2 10 1 0 0 6 1 1 1 25 1 0 1 0 0 0 0 0 0 5 2 1 0 0 0 0 0 0 0 0 0
76 47 69 81 108 108 109 114 101 112 75 0 0 17 47 13 4 3 0 0 0 0 8 0 1 6 0 0 0 0 0 0 0 0 2 0 0 1 0 0 0 0 0 0 0 0 0
85 59 78 92 93 131 161 96 99 107 120 3 2 9 17 4 4 15 14 2 0 0 2 0 0 0 1 1 1 0 0 0 0 0 0 1 0 0 0 0 0 1 0 0 0 0 0
61 51 76 68 77 93 114 107 106 117 124 70 4 10 11 2 0 0 7 2 0 1 0 0 0 0 0 0 0 0 0 0 0 0 0 0 1 0 0 0 0 0 0 0 0 0 0
86 85 87 92 112 121 121 137 134 112 99 68 28 3 9 1 0 2 30 25 2 0 0 0 0 3 1 2 1 0 0 0 0 0 0 0 0 0 0 0 0 0 0 0 0 0 0
98 108 104 115 109 101 106 191 172 116 69 61 47 0 9 0 1 28 15 18 3 1 0 0 0 1 0 0 0 0 0 0 0 0 0 0 0 0 0 0 0 0 0 0 0 0 0
117 133 137 117 134 116 123 163 163 134 73 141 19 0 9 3 0 0 0 0 0 0 1 0 0 0 0 0 0 0 1 0 0 0 0 0 0 0 0 0 0 0 0 0 0 0 0
CIN
-0 -0 -0 -0 -0 -0 -0 -0 -3 -4 -2 -1 -1 -0 -0 -0 -0 -0 -0 -0 -0 -0 -0 -0 -0 -0 -0 -0 -0 -0 -0 -0 -0 -0 -0 -0 -0 -0 -0 -0 -0 -0 -0 -0 -0 -0 -0
-0 -7 -0 -0 -0 -0 -0 -0 -0 -0 -0 -0 -0 -0 -0 -0 -0 -0 -0 -0 -0 -0 -0 -0 -0 -0 -0 -0 -0 -0 -0 -0 -0 -0 -0 -0 -0 -0 -0 -0 -0 -0 -0 -0 -0 -0 -0
-0 -0 -0 -0 -0 -0 -0 -0 -0 -0 -0 -0 -0 -0 -0 -0 -0 -0 -0 -0 -0 -0 -0 -0 -0 -0 -0 -0 -0 -0 -0 -0 -0 -0 -0 -0 -0 -0 -0 -0 -0 -0 -0 -0 -0 -0 -0
-0 -0 -0 -0 -0 -0 -0 -0 -0 -0 -0 -0 -0 -0 -0 -0 -0 -0 -0 -0 -0 -0 -0 -0 -0 -0 -0 -0 -0 -0 -0 -0 -0 -0 -0 -0 -0 -0 -0 -0 -0 -0 -0 -0 -0 -0 -0
-0 -0 -0 -0 -0 -0 -0 -0 -0 -0 -0 -0 -0 -0 -0 -0 -0 -0 -0 -0 -0 -0 -0 -0 -0 -0 -0 -0 -0 -0 -0 -0 -0 -0 -0 -0 -0 -0 -0 -0 -0 -0 -0 -0 -0 -0 -0
-0 -0 -0 -0 -0 -0 -0 -0 -0 -0 -0 -0 -0 -0 -0 -0 -0 -0 -0 -0 -0 -0 -0 -0 -0 -0 -0 -0 -0 -0 -0 -0 -0 -0 -0 -0 -0 -0 -0 -0 -0 -0 -0 -0 -0 -0 -0
-0 -0 -0 -0 -0 -0 -0 -0 -0 -0 -0 -0 -0 -0 -0 -0 -0 -0 -0 -0 -0 -0 -0 -0 -0 -0 -0 -0 -0 -0 -0 -0 -0 -0 -0 -0 -0 -0 -0 -0 -0 -0 -0 -0 -0 -0 -0
-0 -0 -0 -0 -0 -0 -0 -0 -0 -0 -0 -0 -0 -0 -0 -0 -0 -0 -0 -0 -0 -0 -0 -0 -0 -0 -0 -0 -0 -0 -0 -0 -0 -0 -0 -0 -0 -0 -0 -0 -0 -0 -0 -0 -0 -0 -0
-0 -0 -0 -0 -0 -0 -0 -0 -0 -0 -0 -0 -0 -0 -0 -0 -0 -0 -0 -0 -0 -0 -0 -0 -0 -0 -0 -0 -0 -0 -0 -0 -0 -0 -0 -0 -0 -0 -0 -0 -0 -0 -0 -0 -0 -0 -0
-0 -0 -0 -0 -0 -0 -0 -0 -0 -0 -0 -0 -0 -0 -0 -0 -0 -0 -0 -0 -0 -0 -0 -0 -0 -0 -0 -0 -0 -0 -0 -0 -0 -0 -0 -0 -0 -0 -0 -0 -0 -0 -0 -0 -0 -0 -0
-0 -0 -0 -0 -0 -0 -0 -0 -0 -0 -0 -0 -0 -0 -0 -0 -0 -0 -0 -0 -0 -0 -0 -0 -0 -0 -0 -0 -0 -0 -0 -0 -0 -0 -0 -0 -0 -0 -0 -0 -0 -0 -0 -0 -0 -0 -0
-0 -0 -0 -0 -0 -0 -0 -0 -0 -0 -0 -0 -0 -0 -0 -0 -0 -0 -0 -0 -0 -0 -0 -0 -0 -0 -0 -0 -0 -0 -0 -0 -0 -0 -0 -0 -0 -0 -0 -0 -0 -0 -0 -0 -0 -0 -0
-0 -0 -0 -0 -0 -0 -0 -0 -0 -0 -0 -0 -0 -0 -0 -1 -0 -0 -0 -0 -0 -0 -0 -0 -0 -0 -0 -0 -0 -0 -0 -0 -0 -0 -0 -0 -0 -0 -0 -0 -0 -0 -0 -0 -0 -0 -0
-0 -0 -0 -0 -0 -0 -0 -0 -0 -0 -0 -0 -0 -0 -0 -0 -0 -0 -0 -0 -0 -0 -0 -0 -0 -0 -0 -0 -0 -0 -0 -0 -0 -0 -0 -0 -0 -0 -0 -0 -0 -0 -0 -0 -0 -0 -0
-0 -0 -0 -0 -0 -0 -0 -0 -0 -0 -0 -0 -0 -0 -0 -0 -0 -0 -0 -0 -0 -0 -0 -0 -0 -0 -0 -0 -0 -0 -0 -0 -0 -0 -0 -0 -0 -0 -0 -0 -0 -0 -0 -0 -0 -0 -0
-0 -0 -0 -0 -0 -0 -0 -0 -0 -0 -0 -0 -0 -0 -0 -0 -0 -0 -3 -0 -0 -0 -0 -0 -0 -0 -0 -0 -0 -0 -0 -0 -0 -0 -0 -0 -0 -0 -0 -0 -0 -0 -0 -0 -0 -0 -0
-0 -0 -0 -0 -0 -0 -0 -0 -0 -0 -0 -1 -0 -0 -0 -0 -0 -7 -0 -0 -0 -0 -0 -0 -0 -0 -0 -0 -0 -0 -0 -0 -0 -0 -0 -0 -0 -0 -0 -0 -0 -0 -0 -0 -0 -0 -0
-0 -0 -0 -0 -0 -0 -0 -0 -0 -0 -0 -0 -0 -0 -0 -0 -0 -0 -0 -0 -0 -0 -0 -0 -13 -0 -0 -0 -0 -0 -0 -0 -0 -0 -0 -0 -0 -0 -0 -0 -0 -0 -0 -0 -0 -0 -0
-0 -0 -0 -0 -0 -0 -1 -0 -0 -0 -0 -4 -0 -0 -0 -0 -0 -0 -0 -0 -0 -0 -0 -0 -3 -10 -13 -5 -2 -0 -14 -0 -0 -0 -0 -4 -0 -0 -0 -0 -0 -0 -0 -0 -0 -0 -0
-0 -0 -0 -0 -0 -0 -0 -0 -1 -0 -0 -9 -15 -5 -0 -0 -9 -2 -0 -1 -0 -0 -8 -0 -5 -12 -9 -0 -11 -4 -0 -25 -0 -0 -8 -1 -0 -1 -0 -0 -0 -0 -0 -0 -0 -0 -0
-0 -0 -0 -0 -0 -0 -0 -1 -2 -4 -1 -11 -1 -9 -0 -0 -8 -1 -1 -1 -0 -0 -1 -0 -5 -7 -6 -0 -1 -0 -0 -0 -0 -0 -0 -21 -0 -0 -0 -0 -0 -0 -0 -0 -0 -0 -0
-0 -0 -0 -0 -0 -2 -2 -3 -4 -6 -4 -2 -0 -0 -0 -1 -0 -18 -6 -1 -1 -0 -2 -0 -0 -0 -0 -8 -0 -0 -0 -2 -0 -0 -0 -0 -0 -0 -0 -0 -0 -0 -0 -0 -0 -0 -0
-0 -0 -0 -0 -0 -0 -0 -3 -2 -4 -7 -2 -0 -22 -0 -0 -14 -7 -0 -0 -0 -24 -13 -7 -6 -1 -0 -0 -2 -0 -0 -0 -0 -0 -0 -7 -2 -1 -0 -0 -0 -0 -0 -0 -0 -0 -0
-0 -0 -0 -0 -0 -0 -0 -0 -4 -2 -5 -3 -0 -11 -0 -0 -1 -0 -0 -0 -0 -0 -11 -19 -16 -5 -0 -0 -0 -0 -0 -0 -0 -0 -0 -0 -0 -1 -0 -0 -0 -0 -0 -0 -0 -0 -0
-0 -0 -0 -0 -0 -0 -0 -3 -4 -2 -3 -6 -3 -0 -0 -0 -0 -1 -3 -10 -0 -0 -2 -0 -0 -0 -0 -0 -0 -0 -0 -0 -0 -0 -0 -0 -1 -0 -3 -0 -0 -0 -0 -0 -0 -0 -0
-0 -0 -0 -0 -0 -0 -0 -1 -2 -2 -2 -7 -8 -1 -0 -0 -0 -0 -2 -10 -0 -1 -0 -0 -0 -0 -0 -0 -0 -0 -0 -0 -0 -0 -0 -0 -0 -0 -0 -0 -0 -0 -0 -0 -0 -0 -0
-0 -0 -0 -0 -0 -0 -0 -0 -3 -2 -2 -5 -1 -5 -0 -0 -0 -1 -0 -1 -2 -2 -0 -0 -0 -0 -0 -2 -6 -0 -0 -0 -0 -0 -0 -0 -0 -0 -0 -0 -0 -0 -0 -0 -0 -0 -0
-0 -0 -0 -0 -0 -0 -0 -0 -2 -1 -2 -7 -4 -0 -0 -0 -2 -2 -1 -0 -1 -0 -0 -0 -0 -0 -0 -0 -3 -0 -0 -0 -0 -0 -0 -0 -0 -0 -0 -0 -0 -0 -0 -0 -0 -0 -0
-0 -0 -0 -1 -0 -0 -0 -0 -1 -0 -0 -1 -10 -3 -0 -0 -0 -0 -0 -0 -0 -1 -10 -0 -0 -0 -0 -0 -0 -0 -0 -0 -0 -0 -0 -0 -0 -0 -0 -0 -0 -0 -0 -0 -0 -0 -0
Wind_Speed
7 9 11 12 11 10 11 13 13 12 14 13 13 16 18 19 21 22 23 23 22 21 17 15 11 10 3 2 11 0 3 2 3 3 3 4 4 4 4 4 2 5 4 5 4 6 5
15 14 14 14 14 14 14 15 15 15 17 17 17 15 17 19 21 21 22 22 22 20 18 14 8 5 2 5 2 5 4 3 1 3 1 3 3 4 4 4 5 3 3 5 4 5 4
12 12 13 14 14 14 15 15 16 16 17 18 18 17 18 21 23 23 24 24 22 20 15 9 5 3 3 14 3 4 4 2 2 2 2 3 2 1 2 5 4 3 6 7 7 6 7
11 12 13 14 14 15 15 15 16 17 18 19 21 20 19 20 23 24 25 25 21 14 4 4 8 2 8 3 1 2 2 1 0 1 1 2 1 3 4 3 7 4 1 4 2 5 5
11 12 13 14 15 15 16 16 16 17 17 19 19 20 22 22 23 25 27 28 19 2 4 9 3 2 9 1 3 4 5 3 2 1 0 1 2 3 3 4 5 3 6 6 10 9 2
12 12 12 13 13 14 15 16 16 17 17 18 20 21 22 22 23 23 27 26 8 2 3 2 0 1 4 4 3 3 3 4 3 2 2 2 3 1 2 4 8 6 6 6 8 1 3
12 13 15 15 15 15 16 16 17 17 18 19 20 20 21 22 22 24 12 7 8 4 5 6 6 6 3 0 2 2 2 5 3 3 6 2 3 10 14 12 5 2 5 6 4 2 4
12 13 14 14 16 17 17 17 17 18 18 19 20 20 22 23 23 21 4 5 3 4 14 9 8 7 4 3 2 4 5 6 5 6 4 2 12 10 7 6 8 9 6 14 7 6 6
12 13 13 14 14 15 17 16 16 17 18 19 20 20 21 25 26 4 2 2 4 2 3 9 4 4 1 6 5 5 9 3 4 6 7 8 7 4 6 4 5 5 8 9 12 6 6
15 15 15 13 13 12 14 15 16 17 17 18 20 20 21 26 3 4 1 6 6 2 3 8 2 2 2 2 2 2 3 2 1 7 5 7 5 7 3 8 10 6 10 12 8 1 5
16 16 15 16 16 15 14 14 14 16 17 17 19 20 19 17 9 5 5 6 2 2 6 0 1 2 1 3 1 2 1 2 3 2 4 7 2 4 5 8 8 11 5 6 4 5 2
14 15 16 17 17 17 17 17 16 15 15 17 19 20 20 5 3 4 7 5 3 5 10 3 2 2 2 1 2 1 2 2 1 1 3 8 3 4 7 4 7 1 1 2 4 2 6
14 14 15 17 18 17 17 17 17 16 16 17 19 20 15 2 4 5 6 2 5 5 4 4 2 4 2 3 2 4 3 2 4 2 2 3 5 3 2 1 1 3 5 4 4 1 8
15 15 15 17 18 18 17 16 18 18 17 16 20 20 5 3 5 4 3 4 5 4 4 3 4 4 4 3 1 1 2 2 3 3 1 2 7 3 2 5 3 4 7 6 6 3 4
14 16 15 16 17 18 18 16 17 17 16 15 18 4 4 2 4 1 3 2 6 3 3 6 5 2 3 2 1 2 4 4 1 5 6 3 6 3 3 1 4 3 4 3 2 3 2
15 15 16 16 16 17 16 15 17 17 17 15 5 5 4 5 4 1 3 6 5 3 1 2 2 3 4 2 3 4 3 1 2 3 1 1 7 4 4 1 2 4 2 2 1 5 9
17 16 16 18 16 15 15 16 16 17 18 13 3 4 4 5 2 3 4 6 5 4 1 4 2 4 2 3 2 1 4 3 2 2 5 2 5 4 4 1 3 5 3 4 2 5 9
19 18 18 17 16 15 14 14 15 15 17 5 2 3 3 2 2 2 3 4 5 4 4 4 2 6 6 5 5 7 7 8 1 3 3 2 2 6 8 9 4 3 2 1 3 7 3
20 19 19 18 16 14 13 13 13 14 12 1 2 4 3 3 4 4 4 5 3 3 3 3 4 6 2 2 5 5 3 1 4 3 3 2 1 5 5 2 3 5 2 3 5 5 14
21 20 20 17 16 16 14 13 12 11 12 0 2 4 4 1 3 4 6 6 5 3 5 5 5 4 2 4 6 4 4 3 2 4 4 3 4 6 8 8 2 12 16 10 4 8 13
22 20 21 21 19 17 17 14 12 10 10 1 3 4 3 3 3 6 2 2 3 5 2 4 3 5 5 4 2 6 5 3 2 4 4 8 5 7 10 12 9 14 14 15 15 17 11
23 23 23 23 20 19 18 17 15 13 8 3 3 3 2 3 4 8 8 7 10 8 5 5 8 5 7 5 1 5 4 1 4 3 5 3 5 5 7 9 13 16 16 13 10 10 9
22 23 24 23 22 20 19 17 18 15 9 3 3 2 3 3 4 6 7 9 9 6 7 9 6 2 5 12 9 10 8 6 6 5 6 5 2 2 8 2 2 6 4 2 2 5 2
24 24 25 24 22 22 20 21 19 17 13 4 4 1 3 12 11 13 8 9 15 13 12 5 4 5 7 1 4 2 7 12 11 15 10 8 3 2 4 2 6 2 3 4 3 6 4
25 26 25 25 24 23 22 22 20 19 19 6 4 4 4 9 7 10 12 10 8 7 5 6 7 4 3 1 3 5 5 6 4 6 11 11 6 4 4 5 1 4 3 1 3 3 7
26 25 25 23 22 22 22 22 22 22 21 10 6 7 4 4 10 13 12 11 14 13 6 6 2 2 2 4 4 5 5 4 5 2 2 3 10 5 1 3 5 1 3 6 2 3 11
26 26 24 24 23 21 21 22 20 18 19 10 5 11 5 3 7 7 8 5 2 2 4 1 2 3 3 4 5 4 4 3 2 4 4 2 1 8 5 2 1 5 11 7 4 3 13
26 24 22 21 22 22 22 22 20 15 15 9 4 9 6 2 7 6 8 7 3 4 4 4 2 2 2 3 2 4 3 6 3 2 2 4 3 3 2 1 5 13 3 2 4 4 10
23 22 22 20 20 20 20 22 19 19 19 14 5 5 5 5 4 3 2 3 0 3 3 4 2 3 3 1 2 2 4 2 3 3 6 1 2 1 3 3 2 5 10 7 6 8 8
Wind_Direction
6 2 7 7 5 359 355 349 345 341 338 334 333 337 336 334 333 329 324 322 320 316 308 305 308 314 20 345 253 283 137 122 107 124 198 181 175 172 204 221 232 231 249 223 233 188 228
33 24 17 13 12 15 11 2 356 352 347 342 335 334 334 335 332 325 321 318 317 309 302 298 285 287 169 239 216 156 153 123 172 167 200 170 238 225 249 241 182 294 269 271 262 251 252
23 15 14 12 9 8 5 359 356 353 350 347 343 341 337 335 332 326 321 317 317 312 300 286 229 205 180 239 353 162 161 205 183 173 218 191 203 136 326 295 313 324 307 308 231 210 235
20 16 13 9 6 3 1 359 356 353 350 349 344 339 337 336 331 326 320 314 317 315 321 158 169 174 242 260 247 206 164 292 123 212 194 252 137 192 186 267 0 330 330 308 325 132 242
10 10 7 3 359 357 355 355 353 350 348 346 344 342 339 335 333 329 322 313 313 337 101 139 114 156 265 280 206 226 163 189 158 134 6 34 97 199 60 100 353 318 251 228 314 200 116
2 2 0 357 355 353 352 351 349 348 346 342 341 340 339 335 331 327 322 310 280 146 148 208 348 5 270 242 198 173 175 154 145 109 39 105 59 108 45 114 229 228 234 255 251 309 201
6 2 358 353 352 351 351 350 348 347 346 345 341 339 336 333 328 326 336 352 12 341 10 223 219 234 241 4 62 212 173 129 123 117 186 213 163 211 202 208 178 190 221 257 272 218 206
360 359 359 357 353 349 346 346 346 346 346 344 342 339 336 332 330 325 15 58 75 215 305 243 258 286 294 334 317 230 131 164 155 203 150 48 241 225 191 197 236 261 273 268 290 229 202
346 346 346 348 346 346 342 337 339 341 341 340 341 341 338 330 324 11 46 63 307 157 272 302 229 229 243 133 215 248 158 146 175 179 195 183 216 100 154 219 212 228 232 256 248 295 229
347 343 337 333 332 335 339 340 340 338 336 334 336 338 339 335 23 337 5 325 328 125 4 275 293 344 23 81 307 19 195 157 279 221 195 237 261 255 231 250 164 256 217 240 265 289 266
337 336 336 335 338 334 330 328 330 332 331 329 330 334 339 337 303 321 308 311 298 47 344 17 98 286 36 128 265 36 16 61 248 297 114 249 243 204 206 221 160 229 163 198 224 213 341
333 337 338 336 335 333 330 327 324 323 326 327 327 333 336 339 314 271 312 317 44 49 254 8 81 3 0 154 211 99 79 55 132 256 231 246 314 256 216 216 188 262 77 47 61 105 262
334 335 338 336 334 333 333 331 330 326 323 324 323 329 327 255 260 327 330 38 40 163 324 352 337 2 320 244 231 167 165 184 204 327 300 307 237 254 192 235 270 108 65 314 314 330 240
328 327 330 330 329 330 331 339 337 330 323 321 324 328 302 234 302 315 2 48 212 225 263 358 328 310 238 9 197 174 126 253 186 120 190 223 319 174 183 193 221 179 163 172 260 235 274
318 322 328 326 325 330 331 335 333 334 328 324 330 331 314 270 316 29 76 142 231 233 351 353 316 277 287 193 318 42 205 210 167 166 191 233 258 274 207 234 161 160 190 201 260 217 267
308 312 315 316 323 330 331 333 334 338 337 334 322 314 275 317 344 60 181 239 248 215 25 19 251 244 246 297 0 35 303 227 29 113 69 343 300 270 321 35 279 171 205 302 19 280 258
300 303 306 304 310 316 323 328 332 336 338 336 15 342 268 339 59 20 231 234 286 248 209 207 256 300 283 332 302 255 265 323 32 14 53 44 210 283 8 264 242 314 282 238 215 190 263
303 301 299 303 299 302 310 319 323 329 338 38 18 314 289 13 68 195 225 230 315 291 43 296 232 231 224 215 242 225 228 215 213 181 132 220 210 266 224 247 262 265 267 235 250 275 270
299 301 300 296 299 291 295 305 310 321 336 325 289 263 328 81 220 234 264 275 283 269 255 258 261 207 157 251 266 222 245 149 55 80 128 295 2 309 298 15 23 50 14 127 311 273 267
300 296 295 290 289 288 282 283 294 305 314 102 265 300 307 156 210 253 266 262 254 295 263 248 261 260 202 249 215 267 247 231 154 167 148 105 196 214 251 257 264 286 291 304 234 278 291
299 298 296 292 285 281 277 274 269 281 290 126 202 245 204 276 232 249 294 344 290 307 273 331 291 240 241 245 232 235 242 283 268 210 193 174 233 212 244 256 254 263 268 266 263 264 262
297 296 296 294 286 281 279 264 253 248 253 172 266 244 232 219 203 210 213 204 237 239 213 256 238 282 280 259 202 314 296 114 240 309 173 194 254 200 261 257 253 259 262 265 273 287 293
295 293 294 296 286 288 286 273 260 249 211 212 250 222 241 269 213 208 212 224 226 212 243 228 238 269 274 263 264 261 243 243 243 201 206 181 213 206 263 246 358 296 235 91 121 72 301
292 294 292 290 285 277 277 277 264 257 221 177 224 153 259 270 236 235 216 226 243 228 234 237 192 184 235 120 288 287 259 256 243 246 243 246 215 227 278 61 225 162 59 122 128 112 31
293 294 293 292 290 282 279 277 268 259 256 216 207 201 215 259 257 259 230 235 265 265 256 224 239 216 132 155 264 313 324 358 282 226 223 220 202 224 226 191 108 164 44 35 117 212 19
287 291 287 288 290 292 287 284 272 268 262 247 217 218 205 243 238 249 265 244 251 251 244 235 183 146 134 251 211 218 216 217 288 294 76 227 215 212 144 207 224 209 314 337 296 247 7
287 287 291 292 289 287 290 290 284 275 271 251 230 200 227 229 243 185 230 254 188 237 212 200 191 204 179 217 232 207 229 183 233 198 194 189 200 225 225 251 8 316 310 312 192 295 318
286 287 291 289 289 289 290 290 291 287 288 251 266 186 223 250 274 213 219 216 224 184 167 200 171 175 160 247 223 217 183 215 127 200 240 159 159 207 42 158 246 346 50 38 298 300 313
289 289 282 288 293 293 290 295 293 269 262 259 237 171 195 237 260 332 4 50 193 329 160 195 183 158 222 116 280 259 209 157 130 206 26 148 342 144 20 100 112 29 71 23 342 319 321